EET,Max TemperatureF,Mean TemperatureF,Min TemperatureF,Max Dew PointF,MeanDew PointF,Min DewpointF,Max Humidity, Mean Humidity, Min Humidity, Max Sea Level PressureIn, Mean Sea Level PressureIn, Min Sea Level PressureIn, Max VisibilityMiles, Mean VisibilityMiles, Min VisibilityMiles, Max Wind SpeedMPH, Mean Wind SpeedMPH, Max Gust SpeedMPH,PrecipitationIn, CloudCover, Events, WindDirDegrees
2012-10-1,82,76,69,64,63,61,83,69,44,30.13,30.09,30.06,12,6,6,16,9,,0.00,3,,33
2012-10-2,77,72,66,68,65,63,100,78,58,30.09,30.04,29.98,6,6,6,10,5,,0.00,4,,279
2012-10-3,78,72,66,70,66,62,100,80,48,30.01,29.94,29.89,6,5,4,10,5,,0.00,2,Rain,209
2012-10-4,80,74,68,70,62,57,100,70,43,29.98,29.94,29.92,6,6,6,14,8,,0.00,3,,14
2012-10-5,79,71,63,63,61,57,94,71,45,30.09,30.02,29.95,6,6,4,12,5,,0.01,3,,18
2012-10-6,79,72,64,66,61,57,100,69,43,30.17,30.12,30.09,6,6,4,16,8,,0.00,2,,43
2012-10-7,76,70,65,64,61,55,88,71,50,30.09,29.98,29.86,12,7,6,8,6,,0.00,1,,83
2012-10-8,75,68,62,66,58,48,100,71,44,30.01,29.86,29.80,12,6,4,21,8,28,0.12,6,Rain,286
2012-10-9,72,66,60,48,44,40,59,47,24,30.04,29.98,29.92,12,6,6,14,9,,0.00,3,,55
2012-10-10,75,64,54,52,48,41,77,53,27,29.92,29.89,29.86,6,6,6,13,7,,0.00,3,,61
2012-10-11,71,65,59,52,50,46,77,58,32,29.98,29.88,29.83,6,6,6,9,6,23,0.00,4,,346
2012-10-12,73,64,54,61,52,37,94,64,31,30.06,30.04,29.98,6,5,4,9,3,,0.00,,,185
2012-10-13,76,66,57,60,54,45,88,59,32,30.04,30.00,29.95,6,6,6,13,6,,0.00,,,201
2012-10-14,79,72,65,63,58,54,88,61,34,29.99,29.96,29.92,6,5,4,9,4,,0.00,,,148
2012-10-15,81,74,67,67,60,54,94,64,35,30.04,29.99,29.95,12,8,6,12,5,,0.00,,,182
2012-10-16,79,72,65,68,60,55,100,64,35,30.12,30.07,30.04,6,5,4,10,4,,0.00,,,194
2012-10-17,82,74,65,72,62,52,100,69,42,30.18,30.11,30.06,6,6,6,14,5,20,0.00,,,231
2012-10-18,77,72,66,61,56,50,78,59,30,30.24,30.20,30.18,6,6,6,15,10,,0.00,1,,40
2012-10-19,76,69,62,57,52,46,73,57,28,30.24,30.19,30.15,6,6,6,17,10,21,0.00,1,,44
2012-10-20,70,63,56,61,52,45,100,70,43,30.14,30.09,30.04,6,6,6,18,8,,0.12,4,Rain,6
2012-10-21,73,64,56,63,56,52,94,73,37,30.04,29.98,29.95,6,6,6,18,9,,0.00,5,,9
2012-10-22,78,72,65,64,61,57,94,74,53,30.00,29.96,29.92,6,6,6,20,11,,0.00,3,,35
2012-10-23,70,66,62,63,59,55,88,77,57,30.01,29.98,29.95,6,6,2,16,13,29,0.00,5,Rain-Thunderstorm,9
2012-10-24,67,64,62,59,54,50,83,68,47,30.06,30.03,29.98,12,6,6,20,14,28,0.00,5,Thunderstorm,17
2012-10-25,70,66,61,54,51,48,72,60,40,30.04,29.96,29.89,6,6,6,12,8,,0.00,3,,42
2012-10-26,67,60,52,59,55,48,94,78,63,29.92,29.88,29.86,6,6,6,13,5,,0.00,2,,244
2012-10-27,71,64,57,59,56,51,100,70,38,29.92,29.86,29.80,6,6,6,15,5,,0.00,3,,167
2012-10-28,77,72,68,59,56,54,64,56,43,29.84,29.81,29.77,6,6,6,20,14,,0.00,6,,209
2012-10-29,77,70,60,59,54,48,94,53,30,29.83,29.79,29.74,6,6,4,18,7,25,0.51,6,Rain-Thunderstorm,246
2012-10-30,69,63,57,61,54,46,100,73,39,29.98,29.80,29.65,6,6,4,25,14,,0.01,3,Rain-Thunderstorm,194
2012-10-31,70,61,52,55,50,41,94,68,22,30.06,30.02,29.98,6,6,6,9,5,,0.00,1,,47